Location: *
(58.7167°N, 26.1833°E)
Time: 00:15:21
(UTC+00:00)

SL-19 R/B - Pass Details

Date: 25 August 2019
Orbit: 796 x 1010 km, 99.4° (Epoch: 20 September)

Event Time Altitude Azimuth Distance (km) Brightness Sun altitude
Rises 22:52:45 0° 19° (NNE) 3,316 8.8 -20.3°
Reaches altitude 10° 22:55:04 10° 20° (NNE) 2,384 7.7 -20.3°
Maximum altitude 23:00:18 80° 107° (ESE) 828 4.1 -20.1°
Enters shadow 23:02:16 40° 189° (S) 1,182 4.4 -20.1°
